Bookmark and Share
Track history (hours):
 

Pelagos

Last reported at 2014-Apr-20 10:21 UTC. Time now 2014-Apr-20 11:46 UTC.
Position N 51°55' E 004°12'.

Length 249 m; draft 13 m.

Type: Ship (hazmat cat C). MMSI: 240335000.

NotesDate/timePositionNaut miles runAvg speedWind from/ knotsBaromVisibWave heightAir tempDewpointWater temp
2014-Apr-20 10:21N 51°55' E 004°12'0 0.0
2014-Apr-20 02:09N 51°55' E 004°12'0 0.0
2014-Apr-20 01:27N 51°55' E 004°12'0 0.0
2014-Apr-19 20:33N 51°55' E 004°12'0 0.0
2014-Apr-19 14:29N 51°55' E 004°12'2 2.6
2014-Apr-19 13:33N 51°57' E 004°10'9 8.7
2014-Apr-19 12:34N 52°00' E 003°57'8 7.2
2014-Apr-19 11:30N 52°03' E 003°45'347 9.1
2014-Apr-17 21:09N 57°22' E 007°41'610.1
2014-Apr-17 20:32N 57°26' E 007°50'73 9.8
2014-Apr-17 13:04N 57°49' E 009°59'5 9.6
2014-Apr-17 12:31N 57°49' E 010°09'9 9.7
2014-Apr-17 11:34N 57°49' E 010°27'10 9.7
2014-Apr-17 10:33N 57°48' E 010°45'1111.1
2014-Apr-17 09:34N 57°41' E 011°00'1111.0
2014-Apr-17 08:32N 57°33' E 011°15'1010.6
2014-Apr-17 07:34N 57°25' E 011°28'1111.0
2014-Apr-17 06:34N 57°15' E 011°35'10 9.9
2014-Apr-17 05:34N 57°06' E 011°41'1010.0
2014-Apr-17 04:33N 56°56' E 011°47'1010.1
2014-Apr-17 03:33N 56°47' E 011°53'10 9.6
2014-Apr-17 02:33N 56°38' E 011°46'1110.3
2014-Apr-17 01:32N 56°29' E 011°36'114 9.5
2014-Apr-16 13:33N 54°36' E 011°07'1212.2
2014-Apr-16 12:34N 54°32' E 011°26'1312.7
2014-Apr-16 11:33N 54°27' E 011°47'1212.3
2014-Apr-16 10:34N 54°26' E 012°08'1111.0
2014-Apr-16 09:34N 54°36' E 012°16'9 8.8
2014-Apr-16 08:33N 54°41' E 012°29'9 8.8
2014-Apr-16 07:34N 54°46' E 012°42'10 9.9
2014-Apr-16 06:33N 54°51' E 012°57'9 8.9
2014-Apr-16 05:34N 54°54' E 013°12'1010.0
2014-Apr-16 04:33N 54°57' E 013°28'1010.2
2014-Apr-16 03:34N 55°00' E 013°45'10 9.6
2014-Apr-16 02:33N 55°03' E 014°01'9 9.1
2014-Apr-16 01:33N 55°10' E 014°12'10 9.8
2014-Apr-16 00:33N 55°18' E 014°23'10 9.9
2014-Apr-15 23:33N 55°25' E 014°34'10 9.8
2014-Apr-15 22:33N 55°30' E 014°49'1010.1
2014-Apr-15 21:33N 55°34' E 015°05'10 9.7
2014-Apr-15 20:33N 55°38' E 015°21'  

Dump ship's entire track history

sailing weather and tide predictions

Pelagos — SZSW — position and weather